Flag for United Kingdom Weather past 2 weeks in Cheltenham, England, United Kingdom

Now
45 °F

Clear.


Feels Like: 41 °F
Forecast: 34 / 54 °F
Wind: 6 mph from Southeast

Location: Staverton Private


UV Index: 3 (Moderate)

Visibility: 10 mi


Pressure: 30.15 "Hg

Humidity: 61%

Dew point: 32 °F

Location of CheltenhamLocation

Historic Weather in Cheltenham

°F

Cheltenham temperature yesterday

Maximum temperature yesterday: 55 °F (at 2:20 PM)
Minimum temperature yesterday: 43 °F (at 7:50 AM)
Average temperature yesterday: 51 °F

Past Weeks' High & Low Weather Summary

 TemperatureHumidityPressure
High63 °F (Apr 16, 3:20 PM)88% (Apr 4, 4:50 AM)30.45 "Hg (Apr 4, 4:50 AM)
Low36 °F (Apr 15, 7:20 AM)35% (Apr 15, 10:20 AM)29.59 "Hg (Apr 7, 3:50 PM)
Average54 °F63%30.11 "Hg
* Reported Apr 4 4:50 AM — Apr 18 11:50 PM, Cheltenham, Weather by CustomWeather, © 2014

Note: Actual official high and low records may vary slightly from our data, if they occured in-between our weather recording intervals... More about our weather records

Advertising

Historic Weather Conditions — Data for Previous 24 hours

 ConditionsComfort  
Time TempWeatherWind HumidityBarometerVisibility
11:50 PM
Apr 18
45 °FClear.3 mph66%30.15 "Hg10 mi
11:20 PM45 °FClear.No wind66%30.15 "Hg10 mi
10:50 PM45 °FClear.No wind66%30.15 "Hg10 mi
10:20 PM45 °FClear.No wind61%30.15 "Hg10 mi
9:50 PM46 °FClear.No wind57%30.15 "Hg10 mi
9:20 PM48 °FClear.2 mph54%30.15 "Hg10 mi
8:50 PM50 °FSunny.2 mph47%30.15 "Hg10 mi
6:50 PM54 °FSunny.7 mph44%30.12 "Hg10 mi
6:20 PM55 °FSunny.8 mph36%30.12 "Hg10 mi
5:50 PM55 °FSunny.9 mph38%30.12 "Hg10 mi
5:20 PM55 °FPassing clouds.8 mph38%30.15 "HgN/A
4:50 PM55 °FPassing clouds.8 mph36%30.15 "HgN/A
4:20 PM55 °FPassing clouds.8 mph38%30.15 "HgN/A
3:50 PM55 °FSunny.6 mph41%30.15 "Hg10 mi
3:20 PM55 °FPassing clouds.6 mph36%30.15 "HgN/A
2:50 PM55 °FPassing clouds.7 mph44%30.18 "HgN/A
2:20 PM55 °FPassing clouds.5 mph44%30.18 "HgN/A
1:50 PM54 °FPassing clouds.7 mph44%30.18 "HgN/A
1:20 PM54 °FPassing clouds.6 mph47%30.18 "HgN/A
12:50 PM52 °FPassing clouds.6 mph50%30.18 "HgN/A
12:20 PM54 °FPassing clouds.7 mph51%30.18 "HgN/A
11:50 AM50 °FScattered clouds.3 mph58%30.18 "HgN/A
11:20 AM50 °FPassing clouds.3 mph58%30.18 "HgN/A
10:50 AM50 °FPassing clouds.8 mph58%30.18 "HgN/A
10:20 AM50 °FPassing clouds.8 mph58%30.18 "HgN/A
9:50 AM48 °FPassing clouds.7 mph62%30.18 "HgN/A
9:20 AM48 °FPassing clouds.8 mph58%30.18 "HgN/A
8:50 AM46 °FPassing clouds.3 mph76%30.18 "HgN/A
8:20 AM45 °FPassing clouds.3 mph81%30.18 "HgN/A
7:50 AM43 °FSunny.2 mph81%30.18 "Hg10 mi
Weather by CustomWeather, © 2014

See weather overview